When you browse on this site, cookies collect data to enhance your experience and personalize the content and advertising you see.
Visit our Privacy Policy to learn more. By continuing to use the site, you agree to this use of cookies and data.
  • In Portugal
  • List of Countries
  • For 7 days
  • Water Temperature
  • Weather Map
  • Weather Widgets
  • user-avatar
    Login

    Hourly Weather Lakun

    Today, 21 August, Wednesday

    Time Temperature Precipitation Wind Pressure Humidity
    00:00 +19°C° 0 mm 1 mps 637 mmHg 57%
    01:00 +19°C° 0 mm 1 mps 636 mmHg 57%
    02:00 +18°C° 0 mm 1 mps 636 mmHg 58%
    03:00 +18°C° 0 mm 1 mps 636 mmHg 59%
    04:00 +19°C° 0 mm 1 mps 636 mmHg 58%
    05:00 +19°C° 0 mm 1 mps 637 mmHg 57%
    06:00 +19°C° 0 mm 1 mps 637 mmHg 56%
    07:00 +22°C° 0 mm 1 mps 638 mmHg 49%
    08:00 +24°C° 0 mm 1 mps 638 mmHg 43%
    09:00 +27°C° 0 mm 1 mps 639 mmHg 37%
    10:00 +27°C° 0 mm 2 mps 639 mmHg 37%
    11:00 +28°C° 0 mm 2 mps 639 mmHg 36%
    12:00 +28°C° 0 mm 3 mps 639 mmHg 35%
    13:00 +28°C° 0 mm 3 mps 638 mmHg 36%
    14:00 +28°C° 0 mm 3 mps 638 mmHg 36%
    15:00 +28°C° 0 mm 3 mps 638 mmHg 37%
    16:00 +26°C° 0 mm 2 mps 637 mmHg 41%
    17:00 +25°C° 0 mm 2 mps 636 mmHg 46%
    18:00 +24°C° 0 mm 1 mps 636 mmHg 50%
    19:00 +22°C° 0 mm 1 mps 635 mmHg 52%
    20:00 +21°C° 0 mm 1 mps 635 mmHg 53%
    21:00 +19°C° 0 mm 1 mps 635 mmHg 55%
    22:00 +19°C° 0 mm 1 mps 634 mmHg 56%
    23:00 +19°C° 0 mm 1 mps 634 mmHg 57%

    Tomorrow, 22 August, Thursday

    Time Temperature Precipitation Wind Pressure Humidity
    00:00 +19°C° 0 mm 1 mps 634 mmHg 58%
    01:00 +19°C° 0 mm 1 mps 634 mmHg 58%
    02:00 +18°C° 0 mm 1 mps 634 mmHg 58%
    03:00 +18°C° 0 mm 1 mps 634 mmHg 59%
    04:00 +19°C° 0 mm 1 mps 634 mmHg 58%
    05:00 +19°C° 0 mm 1 mps 634 mmHg 57%
    06:00 +19°C° 0 mm 1 mps 634 mmHg 56%
    07:00 +22°C° 0 mm 1 mps 635 mmHg 50%
    08:00 +24°C° 0 mm 1 mps 636 mmHg 43%
    09:00 +27°C° 0 mm 1 mps 637 mmHg 36%
    10:00 +27°C° 0 mm 2 mps 637 mmHg 35%
    11:00 +28°C° 0 mm 2 mps 637 mmHg 35%
    12:00 +28°C° 0 mm 3 mps 637 mmHg 34%
    13:00 +28°C° 0 mm 3 mps 636 mmHg 34%
    14:00 +28°C° 0 mm 3 mps 636 mmHg 33%
    15:00 +28°C° 0 mm 2 mps 636 mmHg 32%
    16:00 +27°C° 0 mm 2 mps 635 mmHg 38%
    17:00 +25°C° 0 mm 2 mps 635 mmHg 43%
    18:00 +24°C° 0 mm 1 mps 634 mmHg 48%
    19:00 +22°C° 0 mm 1 mps 634 mmHg 50%
    20:00 +21°C° 0 mm 1 mps 634 mmHg 52%
    21:00 +19°C° 0 mm 1 mps 634 mmHg 54%
    22:00 +19°C° 0 mm 1 mps 634 mmHg 54%
    23:00 +19°C° 0 mm 1 mps 634 mmHg 53%

    Day after tomorrow, 23 August, Friday

    Time Temperature Precipitation Wind Pressure Humidity
    00:00 +19°C° 0 mm 1 mps 634 mmHg 53%
    01:00 +18°C° 0 mm 1 mps 634 mmHg 53%
    02:00 +18°C° 0 mm 1 mps 634 mmHg 53%
    03:00 +18°C° 0 mm 1 mps 634 mmHg 53%
    04:00 +18°C° 0 mm 1 mps 634 mmHg 52%
    05:00 +19°C° 0 mm 1 mps 634 mmHg 51%
    06:00 +19°C° 0 mm 1 mps 634 mmHg 50%
    07:00 +21°C° 0 mm 1 mps 635 mmHg 44%
    08:00 +24°C° 0 mm 1 mps 636 mmHg 38%
    09:00 +26°C° 0 mm 2 mps 637 mmHg 32%
    10:00 +27°C° 0 mm 2 mps 637 mmHg 31%
    11:00 +28°C° 0 mm 3 mps 637 mmHg 31%
    12:00 +28°C° 0 mm 3 mps 637 mmHg 31%
    13:00 +28°C° 0 mm 3 mps 637 mmHg 32%
    14:00 +28°C° 0 mm 3 mps 637 mmHg 32%
    15:00 +28°C° 0 mm 3 mps 636 mmHg 33%
    16:00 +27°C° 0 mm 3 mps 636 mmHg 39%
    17:00 +25°C° 0 mm 2 mps 635 mmHg 44%
    18:00 +24°C° 0 mm 1 mps 635 mmHg 50%
    19:00 +22°C° 0 mm 1 mps 635 mmHg 52%
    20:00 +21°C° 0 mm 1 mps 634 mmHg 53%
    21:00 +19°C° 0 mm 1 mps 634 mmHg 55%
    22:00 +19°C° 0 mm 1 mps 634 mmHg 53%
    23:00 +19°C° 0 mm 1 mps 634 mmHg 52%

    24 August, Saturday

    Time Temperature Precipitation Wind Pressure Humidity
    00:00 +19°C° 0 mm 1 mps 634 mmHg 51%
    01:00 +18°C° 0 mm 1 mps 634 mmHg 51%
    02:00 +18°C° 0 mm 1 mps 634 mmHg 51%
    03:00 +17°C° 0 mm 2 mps 634 mmHg 50%
    04:00 +18°C° 0 mm 1 mps 634 mmHg 50%
    05:00 +19°C° 0 mm 1 mps 634 mmHg 49%
    06:00 +19°C° 0 mm 1 mps 634 mmHg 49%
    07:00 +21°C° 0 mm 2 mps 635 mmHg 42%
    08:00 +24°C° 0 mm 2 mps 636 mmHg 36%
    09:00 +26°C° 0 mm 2 mps 637 mmHg 29%
    10:00 +27°C° 0 mm 2 mps 637 mmHg 30%
    11:00 +28°C° 0 mm 3 mps 637 mmHg 30%
    12:00 +28°C° 0 mm 3 mps 638 mmHg 30%
    13:00 +28°C° 0 mm 3 mps 637 mmHg 32%
    14:00 +28°C° 0 mm 3 mps 637 mmHg 33%
    15:00 +27°C° 0 mm 3 mps 637 mmHg 35%
    16:00 +26°C° 0 mm 2 mps 636 mmHg 40%
    17:00 +24°C° 0 mm 2 mps 636 mmHg 46%
    18:00 +23°C° 0 mm 1 mps 635 mmHg 51%
    19:00 +21°C° 0 mm 1 mps 635 mmHg 53%
    20:00 +20°C° 0 mm 1 mps 635 mmHg 55%
    21:00 +18°C° 0 mm 1 mps 635 mmHg 58%
    22:00 +18°C° 0 mm 1 mps 635 mmHg 57%
    23:00 +18°C° 0 mm 1 mps 635 mmHg 57%

    25 August, Sunday

    Time Temperature Precipitation Wind Pressure Humidity
    00:00 +18°C° 0 mm 1 mps 635 mmHg 56%
    01:00 +18°C° 0.1 mm 1 mps 635 mmHg 57%
    02:00 +17°C° 0.1 mm 2 mps 635 mmHg 58%
    03:00 +18°C° 0.1 mm 2 mps 635 mmHg 60%
    04:00 +18°C° 0.1 mm 2 mps 635 mmHg 62%
    05:00 +19°C° 0.1 mm 1 mps 635 mmHg 64%
    06:00 +19°C° 0.1 mm 1 mps 635 mmHg 67%
    07:00 +20°C° 0 mm 1 mps 636 mmHg 60%
    08:00 +21°C° 0 mm 2 mps 637 mmHg 53%
    09:00 +23°C° 0 mm 2 mps 637 mmHg 46%
    10:00 +24°C° 0.1 mm 2 mps 637 mmHg 44%
    11:00 +25°C° 0.1 mm 2 mps 637 mmHg 41%
    12:00 +25°C° 0.1 mm 3 mps 637 mmHg 39%
    13:00 +25°C° 0.1 mm 3 mps 637 mmHg 38%
    14:00 +25°C° 0.1 mm 3 mps 637 mmHg 38%
    15:00 +25°C° 0.1 mm 3 mps 637 mmHg 38%
    16:00 +24°C° 0 mm 2 mps 636 mmHg 41%
    17:00 +23°C° 0 mm 2 mps 636 mmHg 45%
    18:00 +20°C° 0 mm 2 mps 635 mmHg 49%
    19:00 +20°C° 0 mm 1 mps 635 mmHg 49%
    20:00 +19°C° 0 mm 1 mps 635 mmHg 49%
    21:00 +16°C° 0 mm 1 mps 634 mmHg 49%
    22:00 +16°C° 0 mm 1 mps 635 mmHg 48%
    23:00 +16°C° 0 mm 2 mps 635 mmHg 47%

    26 August, Monday

    Time Temperature Precipitation Wind Pressure Humidity
    00:00 +16°C° 0 mm 2 mps 635 mmHg 46%
    01:00 +16°C° 0 mm 2 mps 635 mmHg 46%
    02:00 +16°C° 0 mm 1 mps 634 mmHg 46%
    03:00 +16°C° 0 mm 1 mps 634 mmHg 46%
    04:00 +16°C° 0 mm 1 mps 635 mmHg 48%
    05:00 +16°C° 0 mm 1 mps 635 mmHg 50%
    06:00 +18°C° 0 mm 1 mps 635 mmHg 52%
    07:00 +20°C° 0 mm 1 mps 636 mmHg 48%
    08:00 +22°C° 0 mm 1 mps 636 mmHg 43%
    09:00 +24°C° 0 mm 1 mps 637 mmHg 39%
    10:00 +25°C° 0 mm 2 mps 637 mmHg 38%
    11:00 +25°C° 0 mm 2 mps 638 mmHg 38%
    12:00 +26°C° 0 mm 3 mps 638 mmHg 38%
    13:00 +26°C° 0.2 mm 2 mps 637 mmHg 39%
    14:00 +25°C° 0.2 mm 2 mps 637 mmHg 40%
    15:00 +25°C° 0.2 mm 2 mps 637 mmHg 42%
    16:00 +23°C° 0.1 mm 2 mps 637 mmHg 46%
    17:00 +21°C° 0.1 mm 2 mps 636 mmHg 51%
    18:00 +20°C° 0.1 mm 1 mps 636 mmHg 56%
    19:00 +19°C° 0 mm 1 mps 636 mmHg 59%
    20:00 +18°C° 0 mm 1 mps 636 mmHg 61%
    21:00 +16°C° 0 mm 1 mps 636 mmHg 64%
    22:00 +16°C° 0 mm 1 mps 637 mmHg 65%
    23:00 +16°C° 0 mm 1 mps 637 mmHg 65%
    Show more